Date,TemperatureHighF,TemperatureAvgF,TemperatureLowF,DewpointHighF,DewpointAvgF,DewpointLowF,HumidityHigh,HumidityAvg,HumidityLow,PressureMaxIn,PressureMinIn,WindSpeedMaxMPH,WindSpeedAvgMPH,GustSpeedMaxMPH,PrecipitationSumIn
2013-5-1,90,80,64,70,60,53,98,55,31,30.12,29.92,7,4,14,0.00
2013-5-2,72,67,58,66,48,41,94,51,34,30.36,30.07,8,6,16,0.00
2013-5-3,77,65,57,57,51,43,98,69,31,30.39,30.18,6,3,10,0.00
2013-5-4,84,62,53,57,48,37,98,64,20,30.30,30.03,11,4,24,0.00
2013-5-5,73,63,57,49,44,41,76,52,35,30.33,30.21,7,4,15,0.00
2013-5-6,71,65,58,59,51,46,98,61,46,30.36,30.30,7,4,17,0.09
2013-5-7,76,65,55,64,56,49,98,77,41,30.45,30.33,6,2,10,0.00
2013-5-8,77,69,56,69,61,50,98,78,43,30.51,30.42,5,2,9,0.00
2013-5-9,83,74,56,68,56,51,98,57,40,30.51,30.39,4,2,7,0.00
2013-5-10,62,58,56,60,57,56,98,97,90,30.48,30.45,0,0,2,0.00
2013-5-11,73,63,57,72,61,56,98,94,73,30.48,30.36,5,1,10,0.04
2013-5-12,62,55,52,61,54,51,98,98,98,30.42,30.24,1,0,3,0.00
2013-5-13,68,63,32,63,58,53,98,83,58,30.01,0.00,2,0,4,0.00
2013-5-14,73,62,58,63,60,52,98,94,51,29.98,29.89,6,2,9,0.08
2013-5-15,62,60,59,45,44,43,58,56,51,29.95,29.92,6,4,8,0.00
2013-5-16,71,62,59,47,44,43,60,53,39,29.95,29.89,13,8,20,0.00
2013-5-17,70,59,54,52,46,38,91,65,32,29.98,29.89,8,6,13,0.00
2013-5-18,74,53,46,48,42,33,97,70,23,30.07,29.92,6,2,10,0.00
2013-5-19,68,51,43,55,42,34,98,75,29,30.15,30.03,7,2,11,0.00
2013-5-20,72,53,42,50,41,32,98,70,24,30.18,30.03,6,2,12,0.00
2013-5-21,78,66,49,48,42,35,87,44,23,30.09,29.95,8,5,12,0.00
2013-5-22,59,51,49,56,50,48,98,98,85,30.07,29.98,2,0,4,0.00
2013-5-23,64,56,53,61,55,51,98,98,63,30.03,29.86,10,4,15,1.37
2013-5-24,72,67,32,60,49,45,98,55,41,30.18,0.00,12,8,27,0.79
2013-5-25,71,59,52,59,55,50,98,89,49,30.30,30.15,6,3,10,0.12
2013-5-26,49,48,48,49,48,47,98,98,98,30.33,30.27,0,0,0,0.00
2013-5-27,58,48,44,57,48,44,98,98,98,30.48,30.30,3,0,6,0.09
2013-5-28,69,57,54,62,56,53,98,97,65,30.54,30.45,5,0,10,0.21
2013-5-30,70,60,32,60,56,54,98,85,59,30.42,0.00,3,1,6,0.00
2013-5-31,79,71,49,69,54,48,98,59,39,30.42,30.27,6,2,8,0.00